Regional Weather Roundup
Issued by NWS Charleston, SC

Current Version | Previous Version | Graphics & Text | Print | Product List | Glossary On
Versions: 1 2 3 4 5 6 7 8 9 10 11 12 13 14 15 16 17 18 19 20 21 22 23 24 25 26 27 28 29 30 31 32 33 34 35 36 37 38 39 40 41 42 43 44 45 46 47 48 49 50
155
ASUS42 KCHS 221741
RWRCHS

REGIONAL WEATHER ROUNDUP
NATIONAL WEATHER SERVICE CHARLESTON SC
100 PM EDT FRI SEP 22 2017

NOTE: "FAIR" INDICATES FEW OR NO CLOUDS BELOW 12,000 FEET WITH NO
SIGNIFICANT WEATHER AND/OR OBSTRUCTIONS TO VISIBILITY.

NOT ALL STATIONS ARE QUALITY CONTROLLED. USE DATA WITH CAUTION...
ESPECIALLY DEWPOINT OBSERVATIONS.

SCZ027-030-031-034>040-042>050-221800-
...SOUTHEAST SOUTH CAROLINA...

CITY           SKY/WX    TMP DP  RH WIND       PRES   REMARKS
N CHARLESTON   MOSUNNY   85  70  60 N7        30.03F
WATERFRONT PRK   N/A     85  74  69 E5        29.89F HX  93
JOHNS ISLAND   PTSUNNY   84  75  74 E7        30.03F HX  92
PINOPOLIS        N/A     79  73  83 VRB3      29.99F
MONCKS CORNER  FAIR      82  70  65 CALM      30.04F
SUMMERVILLE    PTSUNNY   84  70  61 E3        30.05F
BEAUFORT MCAS  MOSUNNY   86  72  62 VRB6      30.04F HX  92
BEAUFORT ARPT  FAIR      82  72  69 E6        30.03F
HILTON HEAD IS MOSUNNY   84  75  74 E7        30.05F HX  92
WALTERBORO     PTSUNNY   84  70  61 E7        30.05F
ALLENDALE      NOT AVBL

...SOUTHERN MIDLANDS AND PEE DEE...

CITY           SKY/WX    TMP DP  RH WIND       PRES   REMARKS
GEORGETOWN     FAIR      82  72  69 SE6       30.05F
KINGSTREE      FAIR      84  68  58 CALM      30.05F
ORANGEBURG     MOSUNNY   85  68  56 VRB5      30.05F
BARNWELL       FAIR      88  72  58 VRB6      30.04F HX  94
AIKEN          CLOUDY    82  68  61 N7        30.08F
MANNING        FAIR      84  21  10 MISG      30.05F
COLUMBIA       MOSUNNY   88  67  49 N5        30.05F HX  91
SUMTER         MOSUNNY   86  67  53 N5        30.04F
FLORENCE       SUNNY     84  66  54 E9        30.06F
MYRTLE BEACH   NOT AVBL
N MYRTLE BEACH MOSUNNY   84  69  60 SE7       30.05F

$$

GAZ063-065-086>088-099>101-113>116-118-119-134>141-150-221800-
...SOUTHEAST GEORGIA...

CITY           SKY/WX    TMP DP  RH WIND       PRES   REMARKS
SAVANNAH ARPT  MOSUNNY   88  69  53 E8        30.03F HX  92
HUNTER AAF     LGT RAIN  85  72  65 E9        30.01F HX  91
FORT STEWART   MOSUNNY   87  70  57 E8        30.01F HX  91
STATESBORO     SUNNY     87  65  47 E3        30.04F
SYLVANIA       MOSUNNY   87  74  65 E8        30.05F HX  95
CLAXTON        FAIR      88  69  54 N7        30.03F HX  92

...CSRA...CENTRAL AND FAR SOUTHEAST GEORGIA...

CITY           SKY/WX    TMP DP  RH WIND       PRES   REMARKS
THOMSON        SUNNY     86  69  56 N3        30.10F
AUGUSTA-BUSH   SUNNY     88  70  55 VRB5      30.04F HX  93
AUGUSTA-DANIEL SUNNY     89  69  51 NE5       30.06F HX  93
SWAINSBORO     FAIR      86  72  62 E6        30.05F HX  92
VIDALIA        SUNNY     88  70  55 NE8       30.04F HX  92
EASTMAN        FAIR      89  56  32 SE7       30.05F
HAZLEHURST     FAIR      88  55  32 E9        30.02F
ALMA           MOSUNNY   86  68  54 VRB3      30.03F
WAYCROSS       MOSUNNY   86  65  49 E10       30.02F
JESUP          NOT AVBL
BAXLEY         FAIR      84  66  54 E5        30.02F
BRUNSWICK      PTSUNNY   82  70  65 NE10      30.03S
SAINT SIMONS   MOSUNNY   85  74  69 NE14      30.03S HX  92

$$

SCZ027-028-034-036>038-045-046-048>050-GAZ119-141-221800-
...LAKE AND SUPPLEMENTAL COASTAL OBSERVATIONS...

STATION/POSITION TIME  TEMP    WIND        PRES    WAVE   SWELL
                       AIR SEA DIR/SP/G            HT/PER HT/PER/DIR
                 (UTC) (F)     (DEG/KT/KT) (MB)    (FT/S) (FT/S/D)
WINYAH BAY       1630   78      90/  5     1018.0S
LAKE MURRAY      1720   85     160/  3/  4 1016.6
ACE BASIN NERRS  1645   87      80/  2     1017.0F
FORT PULASKI     1700   79 80   90/ 11/ 13 1017.6
SAPELO ISLAND    1700   83        CALM     1017.0

$$

ANZ835-935-AMZ111-154-330-350-352-354-370-450-454-472-221800-
...C-MAN AND BUOY OBSERVATIONS...

STATION/POSITION TIME  TEMP    WIND        PRES    WAVE   SWELL
                       AIR SEA DIR/SP/G            HT/PER HT/PER/DIR
                 (UTC) (F)     (DEG/KT/KT) (MB)    (FT/S) (FT/S/D)
BUOY 41004       1710   79 82   40/ 10/ 12 1016.3
BUOY 41008       1650   80 81   60/ 14/ 16 1016.3F   3/11   3/120/11
FOLLY BEACH CMAN 1700   81      70/  8/  9 1017.8F
CAPERS NEARSHORE 1608   79 81   70/  8/ 14 1017.3F
FRIPP NEARSHORE  1708   79      60/  8/ 12 1023.7F


STATION/POSITION TIME  TEMP    WIND        PRES    WAVE   SWELL
                       AIR SEA DIR/SP/G            HT/PER HT/PER/DIR
                 (UTC) (F)     (DEG/KT/KT) (MB)    (FT/S) (FT/S/D)
5E ST. MARYS GA  1700      82                N/A     4/11   2/110/11
FRYING PAN BUOY  1710   81 83  100/  8/ 12 1016.8
BUOY 41025       1650   76 78  320/  4/  6 1017.4F   5/11   5/ 70/11
CAPE LOOKOUT NC  1700   81     180/  5/  6 1017.1F
BUOY 41002       1650   79 82   60/  6/  8 1016.5F   6/12   5/140/12
BUOY 41010       1710           80/ 17/ 23 1014.5
ST AUGUSTINE FL  1700   77 83   40/ 23/ 25 1015.8F


$$




USA.gov is the U.S. government's official web portal to all federal, state and local government web resources and services.